Location: Brede
(50.9167°N, 0.6000°E)
Time: 08:26:31
(UTC+00:00)

Tiros 1 - Pass Details

Date: 29 November 2020
Orbit: 630 x 663 km, 48.4° (Epoch: 16 January)

Event Time Altitude Azimuth Distance (km) Brightness Sun altitude
Rises 16:51:01 0° 250° (WSW) 2,990 13.0 -8.4°
Reaches altitude 10° 16:53:24 10° 247° (WSW) 2,077 11.5 -8.8°
Maximum altitude 16:58:07 58° 169° (S) 766 7.6 -9.5°
Enters shadow 17:02:36 11° 91° (E) 1,990 9.1 -10.1°
